Location: Malvern Link
(52.1333°N, 2.3000°W)
Time: 05:14:32
(UTC+00:00)

Envisat - Pass Details

Date: 26 January 2022
Orbit: 764 x 765 km, 98.2° (Epoch: 25 May)

Event Time Altitude Azimuth Distance (km) Brightness Sun altitude
Rises 04:15:37 0° 21° (NNE) 3,244 6.7 -33.9°
Reaches altitude 10° 04:18:13 10° 33° (NNE) 2,313 6.0 -33.5°
Maximum altitude 04:22:39 29° 93° (E) 1,374 4.8 -32.8°
Drops below altitude 10° 04:27:03 10° 154° (SSE) 2,299 5.6 -32.2°
Sets 04:29:37 0° 165° (SSE) 3,220 6.3 -31.8°
